Location: Bednik
(45.3500°N, 16.3833°E)
Time: 05:02:17
(UTC+00:00)

SL-24 R/B - RUBIN 2 - Pass Details

Date: 08 August 2020
Orbit: 569 x 1027 km, 64.6° (Epoch: 19 September)

Event Time Altitude Azimuth Distance (km) Brightness Sun altitude
Rises 19:41:43 0° 323° (NW) 3,780 9.3 -14.1°
Reaches altitude 10° 19:44:25 10° 325° (NW) 2,813 8.2 -14.5°
Maximum altitude 19:51:08 83° 53° (NE) 990 4.5 -15.4°
Enters shadow 19:55:09 24° 140° (SE) 1,843 5.3 -15.9°
